User: anonymous   Login
Location: Lourdes
(43.1000°N, 0.0500°W)
Time: 04:47:07
(UTC+00:00)
Language:

COSMO-SKYMED 1 - Orbit

View from above orbital plane
View from above orbital plane
View from above satellite
View from above satellite

Ground track
Ground track

The orbit data is extracted from the following two-line orbital elements,

1 31598U 07023A   21058.87011797  .00000166  00000-0  27442-4 0  9990
2 31598  97.8849 244.3176 0001373  96.9106 263.2276 14.82154021742666
Epoch (UTC): 27 February 2021 20:52:58
Eccentricity: 0.0001373
inclination: 97.8849°
perigee height: 621 km
apogee height: 623 km
right ascension of ascending node: 244.3176°
argument of perigee: 96.9106°
revolutions per day: 14.82154021
mean anomaly at epoch: 263.2276°
orbit number at epoch: 74266

The dashed part of the orbit path shows where the satellite is in the earth's shadow,  

DLR